User: anonymous   Login
Location: Acheville
(50.3840°N, 2.8827°E)
Time: 10:31:17
(UTC+00:00)
Language:

H-2A R/B - Orbit

View from above orbital plane
View from above orbital plane
View from above satellite
View from above satellite

Ground track
Ground track

The orbit data is extracted from the following two-line orbital elements,

1 27601U 02056E   22017.91343647  .00000042  00000-0  30058-4 0  9994
2 27601  98.1800  33.1052 0071887 351.3485  67.9392 14.32029028997628
Epoch (UTC): 17 January 2022 21:55:20
Eccentricity: 0.0071887
inclination: 98.1800°
perigee height: 733 km
apogee height: 836 km
right ascension of ascending node: 33.1052°
argument of perigee: 351.3485°
revolutions per day: 14.32029028
mean anomaly at epoch: 67.9392°
orbit number at epoch: 99762

The dashed part of the orbit path shows where the satellite is in the earth's shadow,  

DLR